TimeEST,TemperatureF,Dew PointF,Humidity,Sea Level PressureIn,VisibilityMPH,Wind Direction,Wind SpeedMPH,Gust SpeedMPH,PrecipitationIn,Events,Conditions,WindDirDegrees,DateUTC
1:00 AM,75,67,70,29.86,8,SSW,3.5,,,,Mostly Cloudy,210,2012-11-07 06:00:00
1:00 AM,75.2,66.2,73,29.86,6.2,SSW,3.5,-,N/A,,Mostly Cloudy,210,2012-11-07 06:00:00
2:00 AM,75.2,68.0,78,29.86,6.2,SSW,3.5,-,N/A,,Mostly Cloudy,210,2012-11-07 07:00:00
3:00 AM,75.2,66.2,73,29.85,6.2,SW,6.9,-,N/A,,Mostly Cloudy,230,2012-11-07 08:00:00
4:00 AM,75,66,67,,8,SW,5.8,,,,,230,2012-11-07 09:00:00
4:00 AM,75.2,66.2,73,29.85,6.2,SW,5.8,-,N/A,,Mostly Cloudy,230,2012-11-07 09:00:00
5:00 AM,71.6,64.4,78,29.85,6.2,SSW,1.2,-,N/A,,Partly Cloudy,200,2012-11-07 10:00:00
6:00 AM,71.6,64.4,78,29.86,6.2,Calm,Calm,-,N/A,,Partly Cloudy,0,2012-11-07 11:00:00
7:00 AM,73.4,69.8,88,29.86,6.2,SSW,2.3,-,N/A,,Partly Cloudy,210,2012-11-07 12:00:00
8:00 AM,77.0,68.0,74,29.88,6.2,WSW,6.9,-,N/A,,Scattered Clouds,240,2012-11-07 13:00:00
9:00 AM,77.0,68.0,74,29.90,6.2,WSW,11.5,-,N/A,,Scattered Clouds,240,2012-11-07 14:00:00
10:00 AM,79,72,72,29.91,9,WSW,11.5,,,Rain,Light Rain Showers,240,2012-11-07 15:00:00
10:00 AM,78.8,71.6,78,29.91,6.2,WSW,11.5,-,N/A,,Scattered Clouds,240,2012-11-07 15:00:00
12:00 PM,78.8,66.2,65,29.88,6.2,West,12.7,-,N/A,,Scattered Clouds,270,2012-11-07 17:00:00
1:00 PM,79,69,65,29.87,9,West,12.7,,,,Partly Cloudy,270,2012-11-07 18:00:00
1:00 PM,78.8,69.8,74,29.86,6.2,West,12.7,-,N/A,,Mostly Cloudy,270,2012-11-07 18:00:00
2:00 PM,75.2,64.4,69,29.85,6.2,West,13.8,-,N/A,,Mostly Cloudy,280,2012-11-07 19:00:00
3:00 PM,75.2,62.6,65,29.85,6.2,West,12.7,-,N/A,,Scattered Clouds,270,2012-11-07 20:00:00
4:00 PM,76,64,58,29.87,9,WSW,11.5,,,,Partly Cloudy,250,2012-11-07 21:00:00
4:00 PM,77.0,64.4,65,29.86,6.2,WSW,11.5,-,N/A,,Scattered Clouds,250,2012-11-07 21:00:00
5:00 PM,73.4,59.0,61,29.87,6.2,West,11.5,-,N/A,,Partly Cloudy,260,2012-11-07 22:00:00
6:00 PM,71.6,59.0,64,29.88,6.2,West,9.2,-,N/A,,Scattered Clouds,270,2012-11-07 23:00:00
7:00 PM,72,61,60,29.91,9,West,9.2,,,,Scattered Clouds,270,2012-11-08 00:00:00
7:00 PM,73.4,60.8,65,29.91,6.2,West,9.2,-,N/A,,Partly Cloudy,270,2012-11-08 00:00:00
9:00 PM,71.6,57.2,60,29.93,6.2,WNW,6.9,-,N/A,,Partly Cloudy,290,2012-11-08 02:00:00
10:00 PM,72,62,62,29.94,9,WNW,8.1,,,,Scattered Clouds,300,2012-11-08 03:00:00
10:00 PM,71.6,60.8,69,29.94,6.2,WNW,8.1,-,N/A,,Partly Cloudy,300,2012-11-08 03:00:00
11:00 PM,71.6,57.2,60,29.94,6.2,West,9.2,-,N/A,,Partly Cloudy,270,2012-11-08 04:00:00